Temp
82 80 74 75 76 76 76 75 75 75 75 75 76 76 76 76 76 76 76 76 76 76 76 75 75 74 74 74 73 73 73 72 72 72 72 73 74 74 74 73 73 76 73
84 82 73 75 76 75 75 75 75 75 75 75 75 76 76 76 76 76 76 76 76 76 75 75 74 74 73 73 73 72 72 71 71 71 72 73 73 75 74 73 73 74 73
83 81 79 74 75 75 75 75 75 75 75 75 75 75 75 75 76 75 76 76 76 75 75 74 74 73 73 72 72 72 71 71 70 70 71 79 77 75 75 74 73 73 73
84 83 81 72 74 74 74 74 75 75 75 75 75 75 75 75 75 75 75 75 74 75 75 74 74 73 72 72 72 72 71 70 70 70 79 79 80 74 75 74 74 74 73
84 84 78 72 74 74 74 74 74 75 75 75 75 75 75 74 74 74 74 74 74 74 74 74 73 72 72 72 72 71 71 70 70 73 79 77 78 75 75 74 74 74 72
80 81 73 72 74 74 74 74 74 74 75 74 74 74 74 74 73 73 73 73 73 73 73 73 72 72 72 72 71 71 70 70 69 80 79 78 76 73 75 74 73 73 72
80 79 77 72 73 73 74 74 74 74 74 74 74 74 73 73 73 73 73 73 72 72 73 72 72 72 71 71 71 70 69 69 76 80 79 78 74 73 75 74 73 73 72
80 78 77 69 70 72 73 73 73 74 74 74 73 73 73 73 73 72 72 72 72 72 72 72 71 71 71 70 70 69 68 67 75 76 76 75 70 74 75 74 73 72 72
80 78 78 77 73 68 70 70 71 72 72 72 73 72 71 71 71 71 71 72 72 72 72 71 71 70 70 70 69 67 66 67 73 76 75 75 70 73 73 73 72 71 70
78 79 78 79 78 77 73 66 67 69 70 70 70 68 68 69 69 69 69 70 71 71 71 70 70 69 69 68 67 66 66 66 74 72 71 71 70 73 73 72 71 70 70
76 78 81 80 81 76 73 71 65 66 67 67 68 66 67 78 78 75 65 67 69 69 69 69 69 68 67 67 67 66 65 69 70 66 65 67 71 72 72 71 70 69 69
75 77 81 80 80 79 79 76 78 77 76 77 78 77 80 79 77 76 67 64 66 66 69 69 69 68 70 72 69 68 68 67 65 63 62 67 71 72 72 71 70 69 68
78 79 79 79 80 80 79 79 78 77 77 77 77 78 78 79 78 78 78 77 77 67 77 76 77 73 73 72 70 67 66 64 61 60 59 64 69 70 71 70 70 69 68
77 78 79 80 79 79 79 78 79 78 77 76 77 77 77 77 76 77 77 77 76 77 76 75 71 74 69 66 64 63 62 62 62 60 58 59 64 67 69 69 69 69 68
76 77 78 79 79 79 78 79 79 78 77 78 77 77 78 77 76 76 75 75 74 74 74 74 74 70 66 64 63 63 62 62 62 62 59 56 58 62 65 67 67 68 67
77 77 79 78 79 79 78 78 77 78 78 78 78 77 76 77 75 74 73 71 73 73 73 73 72 69 65 64 63 63 61 61 61 61 62 58 55 57 60 63 65 66 67
77 78 78 78 79 78 78 78 78 77 78 76 76 75 75 75 74 73 71 71 71 71 71 72 69 67 64 64 62 62 61 61 62 61 61 61 60 54 56 58 61 63 64
78 77 78 78 77 77 78 77 78 77 77 76 74 74 72 73 74 72 70 71 71 70 71 71 67 63 65 65 63 62 62 61 61 59 58 58 58 58 54 54 56 59 60
79 79 77 77 76 76 77 77 77 76 75 73 73 72 71 70 70 71 70 69 70 69 69 70 65 63 63 63 62 62 62 61 60 59 57 56 55 55 55 54 52 53 56
80 79 78 76 75 76 76 76 73 72 72 73 72 71 70 69 69 69 68 67 68 67 67 68 64 62 63 64 64 62 60 60 59 58 56 56 54 54 53 52 52 52 52
79 78 77 75 76 76 73 71 69 68 67 67 67 65 67 67 67 67 67 66 66 65 65 67 65 62 62 65 61 59 58 58 57 57 56 55 53 52 51 51 50 50 51
77 77 77 76 76 76 74 73 72 70 68 67 63 61 62 60 63 65 65 64 64 62 62 63 64 63 62 63 60 61 54 53 55 55 54 53 51 51 49 49 48 48 48
76 76 77 77 76 75 74 73 70 66 63 60 59 58 58 61 61 61 62 61 61 63 60 61 62 62 59 59 60 58 56 55 54 53 51 51 50 49 48 48 47 46 46
76 77 77 77 77 75 74 70 64 63 60 63 56 61 59 59 60 60 59 60 59 60 58 57 60 61 60 57 57 59 59 57 54 48 49 48 49 48 47 46 46 45 45
75 76 77 77 76 74 73 69 67 66 67 63 60 55 56 57 58 58 58 58 57 57 57 57 57 58 58 57 56 55 55 56 56 53 50 45 47 47 46 45 45 44 44
75 74 74 74 74 74 72 69 68 65 59 54 54 57 56 57 55 56 56 56 56 56 55 54 54 55 54 54 54 54 53 53 52 51 50 50 46 44 45 45 44 42 42
MSLP
1015.80 1016.93 1017.75 1017.98 1018.05 1018.25 1018.44 1018.63 1018.81 1018.86 1018.95 1019.09 1019.21 1019.31 1019.44 1019.58 1019.69 1019.70 1019.69 1019.78 1019.84 1019.90 1020.02 1020.14 1020.21 1020.22 1020.18 1020.14 1020.11 1020.02 1019.97 1019.97 1019.95 1019.87 1019.70 1019.51 1019.42 1019.39 1019.38 1019.36 1019.10 1018.93 1019.04
1015.75 1016.98 1017.85 1018.14 1018.30 1018.60 1018.77 1018.89 1019.06 1019.19 1019.30 1019.43 1019.53 1019.57 1019.69 1019.82 1019.96 1020.01 1020.04 1020.03 1020.11 1020.24 1020.43 1020.54 1020.59 1020.62 1020.60 1020.52 1020.44 1020.38 1020.34 1020.30 1020.19 1020.01 1019.68 1019.66 1019.51 1019.42 1019.42 1019.47 1019.38 1019.24 1019.18
1015.94 1017.01 1017.79 1018.32 1018.56 1018.86 1019.07 1019.21 1019.30 1019.42 1019.60 1019.76 1019.91 1019.99 1020.04 1020.06 1020.18 1020.36 1020.44 1020.41 1020.47 1020.63 1020.76 1020.82 1020.87 1020.91 1020.90 1020.85 1020.75 1020.69 1020.63 1020.57 1020.42 1020.11 1019.68 1019.20 1019.27 1019.57 1019.53 1019.54 1019.47 1019.34 1019.21
1016.00 1016.90 1017.61 1018.51 1018.83 1019.12 1019.35 1019.59 1019.64 1019.76 1019.94 1020.07 1020.22 1020.34 1020.41 1020.52 1020.62 1020.65 1020.71 1020.78 1020.86 1020.95 1021.06 1021.08 1021.09 1021.11 1021.07 1021.01 1020.96 1020.87 1020.79 1020.70 1020.44 1020.03 1019.50 1019.58 1019.16 1019.73 1019.59 1019.59 1019.46 1019.39 1019.38
1016.16 1016.66 1017.87 1018.68 1019.03 1019.34 1019.55 1019.75 1019.88 1020.03 1020.19 1020.33 1020.48 1020.59 1020.67 1020.85 1020.88 1020.92 1021.03 1021.11 1021.20 1021.24 1021.30 1021.36 1021.35 1021.35 1021.33 1021.27 1021.24 1021.16 1021.03 1020.80 1020.46 1020.04 1019.72 1020.05 1019.70 1019.97 1019.78 1019.76 1019.63 1019.52 1019.53
1016.59 1017.02 1018.34 1018.88 1019.23 1019.56 1019.78 1019.97 1020.12 1020.31 1020.50 1020.62 1020.83 1020.94 1021.07 1021.21 1021.30 1021.38 1021.44 1021.53 1021.58 1021.62 1021.60 1021.61 1021.60 1021.57 1021.52 1021.48 1021.46 1021.43 1021.33 1020.99 1020.51 1019.82 1019.89 1019.96 1020.20 1020.40 1020.00 1019.81 1019.82 1019.80 1019.70
1016.67 1017.42 1018.39 1019.03 1019.40 1019.72 1019.99 1020.15 1020.38 1020.54 1020.73 1020.87 1021.03 1021.20 1021.39 1021.46 1021.57 1021.67 1021.75 1021.84 1021.92 1021.94 1021.89 1021.87 1021.86 1021.83 1021.78 1021.77 1021.71 1021.63 1021.50 1021.15 1020.56 1020.03 1020.06 1020.15 1020.73 1020.59 1020.09 1019.93 1019.91 1019.80 1019.91
1016.74 1017.59 1018.57 1019.30 1019.57 1019.83 1020.14 1020.39 1020.58 1020.71 1020.89 1021.09 1021.30 1021.49 1021.65 1021.77 1021.89 1022.03 1022.06 1022.09 1022.14 1022.15 1022.13 1022.12 1022.13 1022.10 1022.06 1022.05 1022.00 1021.88 1021.70 1021.35 1020.72 1020.70 1020.65 1020.61 1021.11 1020.66 1020.24 1020.05 1019.96 1020.01 1020.14
1016.91 1017.60 1018.35 1019.02 1019.68 1020.09 1020.35 1020.59 1020.84 1020.94 1021.13 1021.33 1021.53 1021.73 1021.92 1022.08 1022.20 1022.32 1022.33 1022.33 1022.35 1022.37 1022.38 1022.37 1022.34 1022.32 1022.23 1022.20 1022.12 1022.05 1021.85 1021.49 1021.22 1021.28 1021.28 1021.28 1021.31 1020.91 1020.58 1020.32 1020.33 1020.49 1020.58
1017.43 1017.56 1018.14 1018.71 1019.36 1019.73 1020.47 1020.80 1021.05 1021.23 1021.42 1021.62 1021.80 1022.01 1022.20 1022.24 1022.34 1022.41 1022.49 1022.56 1022.60 1022.57 1022.53 1022.49 1022.40 1022.34 1022.22 1022.22 1022.24 1022.16 1021.90 1021.84 1021.61 1022.09 1022.20 1022.15 1021.58 1021.32 1021.06 1020.94 1020.96 1021.02 1021.12
1017.56 1017.75 1017.84 1018.48 1018.86 1019.54 1020.35 1020.84 1021.24 1021.48 1021.69 1021.86 1022.04 1022.23 1022.15 1021.59 1021.80 1022.06 1022.61 1022.71 1022.73 1022.71 1022.64 1022.55 1022.45 1022.32 1022.21 1022.33 1022.23 1022.18 1022.24 1022.20 1022.69 1023.16 1023.19 1022.57 1021.98 1021.80 1021.52 1021.50 1021.51 1021.52 1021.53
1017.16 1017.58 1017.73 1018.38 1018.75 1019.35 1019.75 1020.58 1020.65 1021.13 1021.34 1021.41 1021.46 1021.71 1021.38 1021.65 1021.98 1022.07 1022.50 1022.65 1022.66 1022.55 1022.51 1022.36 1022.23 1022.15 1022.02 1022.15 1022.30 1022.48 1022.66 1023.16 1023.71 1023.83 1023.69 1022.96 1022.38 1022.05 1021.90 1021.86 1021.96 1021.98 1022.07
1016.78 1017.36 1017.80 1018.34 1018.84 1019.14 1019.57 1020.06 1020.42 1020.87 1021.05 1021.26 1021.46 1021.55 1021.69 1021.69 1021.85 1021.80 1021.69 1021.83 1021.97 1022.16 1021.87 1021.90 1021.70 1021.95 1022.30 1022.53 1022.72 1023.00 1023.29 1023.76 1024.09 1024.45 1024.45 1023.67 1023.03 1022.73 1022.46 1022.35 1022.32 1022.36 1022.47
1016.56 1017.19 1017.72 1018.15 1018.71 1019.11 1019.52 1019.93 1020.16 1020.57 1020.99 1021.23 1021.51 1021.66 1021.67 1021.62 1021.83 1021.72 1021.70 1021.78 1021.91 1021.90 1021.92 1021.92 1022.04 1022.10 1022.78 1023.30 1023.43 1023.58 1023.73 1023.98 1024.45 1024.80 1025.25 1024.67 1024.14 1023.70 1023.39 1023.13 1022.93 1022.91 1022.97
1016.43 1017.05 1017.60 1017.98 1018.49 1018.98 1019.37 1019.69 1019.94 1020.35 1020.85 1021.00 1021.34 1021.58 1021.61 1021.60 1021.69 1021.82 1021.91 1022.01 1022.18 1022.30 1022.17 1022.05 1022.11 1022.44 1023.33 1023.70 1023.85 1023.95 1024.26 1024.55 1024.81 1024.86 1025.63 1025.72 1025.38 1024.91 1024.48 1024.18 1023.91 1023.63 1023.50
1016.11 1016.70 1017.35 1017.83 1018.19 1018.69 1019.10 1019.53 1019.95 1020.29 1020.54 1020.84 1021.08 1021.38 1021.69 1021.57 1021.70 1021.94 1022.13 1022.37 1022.38 1022.56 1022.48 1022.44 1022.32 1022.71 1023.35 1023.75 1023.97 1024.29 1024.74 1025.08 1025.25 1025.28 1025.45 1026.03 1026.15 1025.99 1025.41 1024.88 1024.56 1024.33 1024.10
1015.83 1016.45 1017.09 1017.73 1018.14 1018.49 1018.88 1019.49 1019.86 1020.22 1020.53 1020.83 1021.18 1021.64 1021.75 1021.81 1021.90 1022.00 1022.39 1022.51 1022.56 1022.71 1022.66 1022.53 1022.66 1023.39 1023.73 1023.95 1024.36 1024.75 1025.02 1025.30 1025.33 1025.49 1025.61 1025.79 1025.88 1026.41 1026.26 1025.86 1025.49 1025.19 1024.88
1015.57 1016.15 1016.87 1017.57 1018.05 1018.43 1018.78 1019.29 1019.65 1020.07 1020.52 1020.87 1021.38 1021.73 1022.02 1022.15 1022.10 1022.20 1022.40 1022.39 1022.62 1022.74 1022.60 1022.57 1023.03 1023.84 1023.82 1024.16 1024.52 1024.78 1025.13 1025.43 1025.64 1026.04 1026.33 1026.39 1026.42 1026.29 1026.65 1026.62 1026.25 1025.91 1025.62
1015.08 1015.79 1016.64 1017.44 1017.87 1018.36 1018.68 1019.15 1019.55 1020.11 1020.62 1021.13 1021.49 1021.74 1022.07 1022.28 1022.47 1022.49 1022.62 1022.78 1022.75 1022.89 1022.89 1022.84 1023.47 1024.10 1024.14 1024.40 1024.63 1024.87 1025.09 1025.38 1025.87 1026.30 1026.66 1026.91 1027.10 1027.03 1027.02 1027.10 1027.16 1026.94 1026.52
1014.69 1015.42 1016.27 1017.04 1017.59 1018.16 1018.59 1019.07 1019.90 1020.52 1020.85 1021.16 1021.39 1021.81 1022.22 1022.45 1022.64 1022.74 1022.97 1023.14 1023.08 1023.18 1023.22 1023.12 1023.61 1024.11 1024.24 1024.48 1024.66 1025.23 1025.70 1026.26 1026.22 1026.47 1026.87 1027.23 1027.53 1027.53 1027.55 1027.55 1027.54 1027.55 1027.43
1014.38 1014.97 1015.68 1016.42 1016.99 1017.72 1018.36 1018.99 1019.77 1020.19 1021.05 1021.52 1021.95 1022.40 1022.43 1022.55 1022.72 1022.84 1023.13 1023.36 1023.32 1023.40 1023.59 1023.36 1023.66 1023.92 1024.10 1024.48 1025.10 1025.75 1026.19 1026.37 1026.62 1026.69 1027.15 1027.44 1027.72 1028.01 1028.17 1028.24 1028.20 1028.11 1027.90
1013.90 1014.49 1015.10 1015.67 1016.34 1017.12 1017.84 1018.63 1019.27 1020.04 1020.79 1021.28 1022.27 1022.77 1022.83 1022.98 1023.05 1023.10 1023.37 1023.54 1023.68 1023.89 1024.00 1023.88 1023.88 1023.95 1024.35 1024.70 1024.40 1024.26 1025.31 1026.18 1026.90 1027.11 1027.47 1027.67 1028.15 1028.34 1028.55 1028.64 1028.80 1028.72 1028.61
1013.34 1013.88 1014.44 1015.08 1015.84 1016.71 1017.55 1018.31 1019.25 1020.50 1021.09 1021.86 1022.48 1022.91 1023.09 1023.14 1023.18 1023.35 1023.56 1023.85 1023.96 1023.85 1024.11 1024.32 1024.21 1024.14 1024.27 1024.82 1024.82 1024.72 1024.41 1024.94 1025.89 1027.12 1027.83 1028.10 1028.19 1028.31 1028.63 1029.03 1029.35 1029.47 1029.22
1012.58 1013.38 1014.01 1014.60 1015.32 1016.30 1017.09 1017.87 1018.91 1019.44 1020.17 1020.80 1021.91 1022.45 1023.01 1023.08 1023.16 1023.62 1023.90 1023.96 1024.18 1024.19 1024.45 1024.73 1024.60 1024.47 1024.45 1024.64 1024.98 1025.39 1025.21 1025.30 1025.37 1026.46 1027.44 1027.85 1028.36 1028.56 1028.67 1028.91 1029.19 1029.60 1029.73
1012.13 1012.70 1013.44 1014.13 1014.86 1015.77 1016.50 1017.47 1018.38 1018.94 1019.39 1020.55 1021.63 1022.47 1023.01 1023.28 1023.27 1023.81 1023.82 1024.26 1024.53 1024.55 1024.76 1024.79 1024.80 1024.76 1024.86 1024.96 1024.98 1025.45 1025.65 1025.82 1025.95 1025.84 1026.27 1027.51 1027.97 1028.53 1028.98 1029.25 1029.55 1029.62 1029.92
1011.64 1012.48 1013.06 1013.67 1014.36 1015.25 1016.09 1017.07 1017.78 1018.50 1019.68 1020.70 1021.52 1022.20 1022.91 1023.32 1023.35 1023.89 1023.99 1024.24 1024.51 1024.82 1024.78 1025.10 1025.25 1025.38 1025.45 1025.55 1025.54 1025.92 1026.15 1026.14 1025.99 1026.22 1026.31 1026.77 1027.52 1028.51 1028.81 1029.03 1029.49 1029.75 1029.99
Wind_Speed
11 14 9 9 15 15 15 15 15 15 14 14 14 14 15 14 14 13 13 14 14 14 14 14 13 13 13 14 13 13 12 11 10 9 8 10 12 12 12 12 15 12 12
15 15 9 9 15 14 14 14 14 14 14 14 13 13 13 14 13 13 12 12 13 14 14 13 13 13 13 13 13 12 11 10 8 7 6 3 12 11 10 10 10 10 11
15 16 13 10 14 13 13 13 12 13 14 13 13 12 11 12 13 12 11 11 12 14 13 13 13 13 12 12 12 11 10 10 8 6 10 8 9 10 10 9 9 10 11
15 14 15 11 13 12 12 11 11 14 14 13 13 12 11 12 10 11 10 11 14 13 13 12 12 12 12 12 11 10 10 9 7 9 6 9 8 13 9 9 8 9 12
15 13 16 12 13 13 12 11 11 14 13 13 13 12 12 11 14 12 14 12 12 12 12 11 11 11 10 11 11 10 9 8 9 6 8 9 9 13 14 10 12 12 10
13 11 15 14 14 13 12 11 11 13 13 13 12 12 11 11 11 12 12 11 11 10 10 9 9 9 9 9 10 10 9 11 14 8 7 6 11 14 14 11 9 9 10
13 15 15 13 13 12 11 11 13 12 12 12 11 11 10 10 10 10 10 9 8 8 8 9 8 9 10 11 10 9 9 11 10 9 9 10 11 14 15 14 11 8 10
16 13 15 12 11 11 10 10 10 10 11 11 11 10 9 9 8 8 7 7 7 7 8 8 8 9 9 9 9 9 9 10 9 9 8 9 14 16 16 16 12 10 10
14 13 13 13 11 8 9 9 7 8 9 8 9 9 8 8 7 7 7 7 8 8 8 8 7 7 7 7 7 7 7 9 5 9 12 10 13 20 19 18 16 13 14
9 13 12 12 11 11 10 7 7 7 7 6 7 7 6 7 6 4 4 7 6 6 6 6 6 5 4 3 5 6 8 9 12 12 10 10 18 20 22 21 17 15 16
13 10 12 11 11 10 10 8 7 6 6 6 7 5 6 3 6 8 7 3 4 4 4 4 4 3 4 1 4 5 9 8 12 8 7 16 19 21 21 20 17 15 15
15 14 11 11 10 12 10 10 8 8 7 6 6 7 2 4 5 4 4 4 3 2 2 2 2 3 7 4 3 7 6 11 8 8 6 17 19 20 21 20 17 15 15
15 12 12 11 11 10 8 7 4 4 4 3 4 3 4 3 3 2 1 3 1 3 2 3 3 4 8 7 7 8 9 8 4 5 12 18 20 21 21 22 21 18 17
16 14 13 13 11 10 7 6 6 5 4 4 5 4 3 2 2 1 3 2 3 4 5 4 3 4 10 9 9 8 8 6 5 5 12 21 21 21 21 21 21 20 18
15 15 14 13 12 10 9 6 6 6 5 5 5 4 2 2 1 1 3 3 4 5 4 3 4 6 8 7 6 8 8 9 8 5 7 20 23 22 22 22 21 21 19
15 15 15 14 12 11 8 8 6 6 6 5 4 3 3 2 1 1 2 3 3 3 3 2 3 5 6 5 7 9 9 8 8 8 6 9 22 21 21 20 20 18 19
15 15 15 14 12 11 10 9 7 6 5 4 3 3 2 2 1 1 1 1 3 2 1 0 7 4 5 5 8 8 8 8 8 9 8 7 7 18 20 21 19 18 17
15 16 15 12 13 12 10 9 7 7 5 4 3 3 3 1 0 1 1 1 2 1 1 2 5 4 4 5 5 6 6 7 8 9 8 7 7 6 11 17 18 18 17
16 16 16 14 14 13 11 8 7 6 4 4 4 3 4 3 1 1 1 2 2 2 2 2 5 3 4 4 5 5 5 6 7 7 8 8 8 7 6 11 14 18 18
16 16 16 13 15 14 10 8 6 6 5 4 4 3 4 3 3 2 1 2 2 2 1 1 8 1 3 4 4 6 6 5 5 5 6 6 7 7 7 8 6 7 16
16 17 17 17 16 12 9 9 9 8 6 5 4 4 4 3 3 3 2 2 2 3 2 2 5 6 4 3 4 5 4 4 5 5 5 5 5 6 8 7 5 5 6
18 17 17 17 17 14 10 8 7 6 5 6 4 4 3 2 2 3 2 2 3 3 3 3 3 2 4 1 3 0 4 4 3 4 4 4 5 5 5 6 7 7 7
18 17 17 17 17 15 14 9 7 7 5 4 5 4 4 4 5 4 3 3 3 2 3 2 2 4 3 2 1 3 2 1 5 4 4 3 3 3 4 4 6 7 6
17 15 17 16 17 15 15 12 13 8 8 6 5 6 5 5 6 4 4 3 3 3 4 3 0 2 2 3 2 2 3 2 2 3 3 3 2 3 3 3 4 5 6
16 15 14 15 15 16 15 14 11 10 6 7 6 7 6 5 6 5 5 5 4 3 4 4 3 2 1 2 1 1 1 1 1 2 0 5 3 2 3 4 3 3 4
14 12 12 15 15 15 14 15 14 11 10 8 8 8 6 6 6 6 6 5 5 5 5 4 3 3 3 3 3 2 2 2 1 2 1 2 3 4 2 2 2 3 2
Wind_Direction
139 128 140 136 115 107 102 96 92 89 87 85 84 86 87 85 86 84 83 80 79 75 66 64 61 59 56 53 53 53 53 48 44 38 37 56 33 42 36 25 2 37 22
135 139 142 139 111 106 104 103 101 97 92 89 91 93 98 95 88 85 83 83 80 71 65 64 61 58 55 52 50 50 47 42 37 10 328 144 62 31 35 26 21 17 13
135 132 146 131 114 113 112 113 111 104 96 94 94 95 88 90 101 91 86 83 76 71 69 68 64 59 53 50 48 43 37 32 19 334 309 33 78 34 33 25 14 12 5
137 146 138 129 120 118 115 114 111 104 97 95 93 93 87 75 75 100 97 79 72 70 68 65 61 56 52 47 42 39 35 26 349 313 37 22 29 27 28 20 16 7 359
140 151 123 131 128 125 123 122 119 103 101 98 96 97 91 81 67 80 83 71 70 68 65 60 54 51 47 44 38 35 27 354 317 309 43 31 15 21 16 24 17 17 15
136 147 132 134 129 128 125 124 120 108 105 102 98 95 92 84 76 74 75 71 68 64 60 55 47 42 40 45 43 40 20 341 311 40 33 42 29 359 358 22 22 17 19
144 125 138 130 130 131 130 131 119 115 114 110 106 99 95 89 80 74 71 67 60 55 52 48 43 39 44 44 37 24 10 333 320 32 28 44 15 351 349 2 5 11 26
130 142 135 131 133 134 131 123 122 133 135 127 118 108 99 90 83 76 69 64 56 50 47 47 42 41 42 40 32 19 0 335 23 30 17 30 6 353 354 360 8 34 47
140 142 144 144 136 128 132 128 123 102 91 112 123 109 91 85 83 74 66 59 55 50 48 46 41 31 29 33 30 12 346 322 352 41 18 20 9 29 29 30 38 44 60
154 153 151 154 162 160 146 125 121 108 99 95 119 112 115 120 121 128 125 68 52 50 48 44 38 22 8 51 35 357 316 319 49 37 18 15 28 30 35 36 42 57 71
160 175 158 155 165 129 144 139 130 112 104 117 130 134 196 187 150 139 69 69 55 49 54 40 25 354 315 145 75 6 357 46 56 40 18 12 35 37 40 39 43 58 67
167 178 161 164 166 155 158 157 164 150 169 182 186 182 173 103 66 57 114 173 164 178 172 156 211 251 16 44 40 51 57 64 56 45 21 24 37 37 39 42 41 49 55
167 168 167 166 166 163 161 166 155 163 150 148 145 160 122 142 166 165 122 147 76 185 59 345 39 28 45 31 50 52 72 78 74 58 22 31 42 44 44 47 47 50 57
170 167 169 170 168 170 158 171 159 159 158 156 154 153 162 171 158 31 27 0 13 12 4 5 52 37 65 52 68 77 84 90 80 74 40 39 43 42 38 39 39 47 52
173 170 174 172 173 168 169 167 162 146 168 156 159 159 199 194 214 315 6 4 12 359 350 352 19 70 80 88 92 91 82 76 71 77 72 48 44 42 39 39 34 33 37
177 177 174 177 177 170 174 163 157 159 148 168 154 157 189 249 281 327 8 25 356 354 0 6 54 80 101 99 86 77 76 74 69 67 67 74 58 46 44 43 42 39 36
180 177 178 179 181 171 170 165 165 168 163 164 150 170 163 224 215 20 80 12 24 28 335 170 89 93 105 104 84 82 81 77 66 61 58 50 68 61 44 41 40 38 34
181 181 177 179 180 178 177 171 173 160 186 172 163 156 151 123 305 85 184 102 64 91 163 129 108 122 115 86 91 86 94 88 79 70 63 53 46 45 57 46 42 40 36
184 179 178 180 183 183 179 176 169 167 171 159 169 158 148 121 73 288 48 103 147 112 89 122 91 122 107 102 109 104 92 84 82 76 69 62 53 47 42 55 51 37 34
185 180 181 181 185 182 176 174 161 170 165 158 153 141 140 131 152 148 127 119 95 98 115 145 103 85 140 123 112 84 76 72 81 74 76 69 55 51 47 40 29 46 35
190 184 184 184 185 179 178 178 181 180 162 161 152 148 152 150 142 146 124 109 94 99 102 138 143 152 136 129 127 107 91 87 78 82 73 75 67 54 42 40 33 17 24
191 193 191 188 186 186 180 183 178 161 181 154 126 133 120 134 100 115 135 116 111 127 128 167 166 145 103 103 293 163 177 150 110 74 86 76 61 58 53 45 34 30 23
197 196 196 193 190 185 188 171 152 137 115 148 161 145 159 155 121 123 132 124 124 131 111 109 198 190 150 140 281 315 223 39 141 150 88 83 86 73 64 49 42 32 26
199 196 200 196 194 190 189 168 176 187 168 175 157 162 153 140 131 125 125 136 117 104 110 104 109 139 244 165 141 15 32 1 306 160 168 134 99 79 67 71 51 44 23
196 197 196 196 199 189 193 182 188 197 177 146 146 141 154 153 130 150 138 128 119 114 110 130 141 125 72 117 69 142 40 52 357 305 140 156 158 114 70 48 27 45 36
190 196 194 196 198 193 198 191 194 178 156 147 150 157 166 164 148 161 142 139 129 133 137 117 101 89 84 75 84 64 6 338 97 291 268 85 45 112 90 89 48 50 19